Regional Weather Roundup
Issued by NWS

Home | Current Version | Previous Version | Text Only | Print | Product List | Glossary Off
Versions: 1 2 3 4 5 6 7 8 9 10 11 12 13 14 15 16 17 18 19 20 21 22 23 24 25 26 27 28 29 30 31 32 33 34 35 36 37 38 39 40 41 42 43 44 45 46 47 48 49 50

000
ASUS45 KABQ 090801
RWRNM
NEW MEXICO REGIONAL WEATHER ROUNDUP
NATIONAL WEATHER SERVICE ALBUQUERQUE NM
100 AM MST TUE FEB 09 2016

NOTE: "FAIR" MEANS FEW OR NO CLOUDS BELOW 12,000 FEET AGL WITH NO
       SIGNIFICANT WEATHER OR OBSTRUCTIONS TO VISION.

      THIS PRODUCT IS RELEASED AS TWO VERSIONS.  ONE VERSION NEAR
      THE TOP OF THE HOUR CONTAINING PRELIMINARY DATA FROM ALBUQUERQUE
      AND OTHER STATIONS.  A FINAL VERSION WITH ADDITIONAL DATA IS
      ISSUED ABOUT 10 MINUTES AFTER THE HOUR.

NMZ501-503-504-510>518-090900-
NORTHWEST PLATEAU/NORTHCENTRAL MOUNTAINS

CITY           SKY/WX    TMP DP  RH WIND       PRES   REMARKS
FARMINGTON     CLOUDY    24  21  88 NE6       30.41F WCI  17
SANTA FE       CLOUDY    31  20  63 CALM      30.39F
TAOS           CLOUDY    21  16  79 N7        30.42S WCI  13

$$
NMZ402-403-502-505>509-090900-
WESTCENTRAL MOUNTAINS/SOUTHWEST MOUNTAINS

CITY           SKY/WX    TMP DP  RH WIND       PRES   REMARKS
GALLUP         CLEAR     22  19  89 E3        30.43F
SILVER CITY      N/A     36  19  51 N13       30.40S WCI  27

$$
NMZ407-409-411-412-090900-
SOUTHERN DESERTS

CITY           SKY/WX    TMP DP  RH WIND       PRES   REMARKS
DEMING         CLEAR     36  16  44 CALM      30.36S
HOLLOMAN AFB   CLOUDY    31  11  43 N5        30.37S WCI  27
ALAMOGORDO     CLOUDY    32  14  47 CALM      30.38S
T OR C         CLEAR     39  16  39 N3        30.38R

$$
NMZ519>523-090900-
CENTRAL VALLEYS/CENTRAL HIGHLANDS

CITY           SKY/WX    TMP DP  RH WIND       PRES   REMARKS
ALBUQUERQUE    CLOUDY    32  19  58 CALM      30.39F
DOUBLE EAGLE   CLOUDY    32  21  62 CALM      30.40S
CLINES CORNERS CLOUDY    27  19  72 W6        30.37F WCI  20
BELEN          FAIR      32  19  58 N7        30.39S WCI  25
SOCORRO        NOT AVBL

$$
NMZ524>526-539-540-090900-
SOUTHCENTRAL MOUNTAINS

CITY           SKY/WX    TMP DP  RH WIND       PRES   REMARKS
RUIDOSO          N/A     32  14  47 NW7       30.41F WCI  26

$$
NMZ527>531-090900-
NORTHEAST HIGHLANDS/NORTHEAST PLAINS

CITY           SKY/WX    TMP DP  RH WIND       PRES   REMARKS
LAS VEGAS      CLOUDY    26  15  63 SW9       30.38F WCI  17
RATON          CLOUDY    24  17  74 NE6       30.37F WCI  17
CLAYTON        CLEAR     27  19  72 W8        30.35F WCI  19

$$
NMZ532>537-090900-
EASTCENTRAL PLAINS

CITY           SKY/WX    TMP DP  RH WIND       PRES   REMARKS
TUCUMCARI      CLOUDY    22  14  71 CALM      30.38S
CANNON AFB     CLOUDY    30  15  54 NW6       30.39F WCI  24
CLOVIS AIRPORT CLOUDY    27  16  63 NW6       30.39F WCI  20

$$
NMZ028-029-538-090900-
SOUTHEAST PLAINS

CITY           SKY/WX    TMP DP  RH WIND       PRES   REMARKS
ROSWELL        CLOUDY    32  15  49 CALM      30.40F
ARTESIA        CLOUDY    28  16  59 NW7       30.41S WCI  21
CARLSBAD       CLOUDY    32  16  51 SW5       30.39F WCI  27
HOBBS          CLOUDY    27  16  63 NW8       30.41F WCI  18


$$



USA.gov is the U.S. government's official web portal to all federal, state and local government web resources and services.